Regional Weather Roundup
Issued by NWS

Home | Current Version | Previous Version | Text Only | Print | Product List | Glossary On
Versions: 1 2 3 4 5 6 7 8 9 10 11 12 13 14 15 16 17 18 19 20 21 22 23 24 25 26 27 28 29 30 31 32 33 34 35 36 37 38 39 40 41 42 43 44 45 46 47 48 49 50
000
ASUS45 KABQ 190910
RWRNM
WEATHER ROUNDUP FOR NEW MEXICO
NATIONAL WEATHER SERVICE ALBUQUERQUE NM
200 AM MST FRI DEC 19 2014

NOTE: "FAIR" MEANS FEW OR NO CLOUDS BELOW 12,000 FEET AGL WITH NO
       SIGNIFICANT WEATHER OR OBSTRUCTIONS TO VISION.

      THIS PRODUCT IS RELEASED AS TWO VERSIONS.  ONE VERSION NEAR
      THE TOP OF THE HOUR CONTAINING PRELIMINARY DATA FROM ALBUQUERQUE
      AND OTHER STATIONS.  A FINAL VERSION WITH ADDITIONAL DATA IS
      ISSUED ABOUT 10 MINUTES AFTER THE HOUR.

NMZ501-503-504-510>518-191000-
NORTHWEST PLATEAU/NORTHCENTRAL MOUNTAINS

CITY           SKY/WX    TMP DP  RH WIND       PRES   REMARKS
FARMINGTON     CLEAR     25  24  96 CALM      30.17R
LOS ALAMOS     PTCLDY    28  21  74 W3        30.12S
SANTA FE       CLEAR     28  23  81 NW9       30.11S WCI  19
TAOS           CLOUDY    21  18  86 N6        30.12S WCI  14
ANGEL FIRE     CLOUDY    17  15  92 NE8       30.10S WCI   7

$$
NMZ402-403-502-505>509-191000-
WESTCENTRAL MOUNTAINS/SOUTHWEST MOUNTAINS

CITY           SKY/WX    TMP DP  RH WIND       PRES   REMARKS
GALLUP         HAZE      23  18  81 CALM      30.20R VSB 1/4
GRANTS         CLEAR     20  19  94 NW6       30.20R WCI  13
SILVER CITY    CLEAR     32  32 100 NW8       30.16S WCI  25

$$
NMZ407-409-411-412-191000-
SOUTHERN DESERTS

CITY           SKY/WX    TMP DP  RH WIND       PRES   REMARKS
LORDSBURG      FAIR      34  32  93 W5        30.18R WCI  30
DEMING         CLEAR     31  31 100 CALM      30.16R
LAS CRUCES     FOG       35  34  96 W8        30.15F VSB 1   WCI  28
HOLLOMAN AFB   MOCLDY    40  39  99 NW6       30.13S
ALAMOGORDO     CLOUDY    41  39  93 N3        30.14S
T OR C         PTCLDY    37  32  82 NW10      30.14S WCI  30

$$
NMZ519>523-191000-
CENTRAL VALLEYS/CENTRAL HIGHLANDS

CITY           SKY/WX    TMP DP  RH WIND       PRES   REMARKS
ALBUQUERQUE    CLEAR     34  27  75 NW9       30.16R WCI  27
DOUBLE EAGLE   CLEAR     29  25  84 NW7       30.16R WCI  22
MORIARTY ARPT  FAIR      25  21  83 NW5       30.12S WCI  19
CLINES CORNERS CLEAR     26  22  84 NW21      30.05S WCI  12
BELEN          FAIR      26  24  93 W7        30.17R WCI  18
SOCORRO        FAIR      29  28  99 CALM      30.16R

$$
NMZ524>526-539-540-191000-
SOUTHCENTRAL MOUNTAINS

CITY           SKY/WX    TMP DP  RH WIND       PRES   REMARKS
RUIDOSO        CLOUDY    32  30  93 N9        30.12S WCI  24

$$
NMZ527>531-191000-
NORTHEAST HIGHLANDS/NORTHEAST PLAINS

CITY           SKY/WX    TMP DP  RH WIND       PRES   REMARKS
LAS VEGAS      PTCLDY    22  20  92 N7        30.07R WCI  13
RATON          MOCLDY    25  22  88 CALM      30.08R
CLAYTON        CLOUDY    31  28  89 NW6       30.08F WCI  25

$$
NMZ532>537-191000-
EASTCENTRAL PLAINS

CITY           SKY/WX    TMP DP  RH WIND       PRES   REMARKS
TUCUMCARI      CLOUDY    32  27  81 N8        30.08S WCI  25
CANNON AFB     CLOUDY    36  33  91 SE7       30.10R FOG     WCI  30
CLOVIS AIRPORT CLOUDY    36  32  87 E8        30.10S WCI  29

$$
NMZ028-029-538-191000-
SOUTHEAST PLAINS

CITY           SKY/WX    TMP DP  RH WIND       PRES   REMARKS
ROSWELL        MOCLDY    41  35  79 N5        30.09S
ARTESIA        CLEAR     37  37 100 W8        30.10S WCI  31
CARLSBAD       CLEAR     45  35  68 NW3       30.08S
HOBBS          PTCLDY    37  37 100 E9        30.11S WCI  31


$$



USA.gov is the U.S. government's official web portal to all federal, state and local government web resources and services.